GW3823 Weather Reports


Display with metric or nautical units.
time (UTC)temp
F
wind
direction
speed
MPH
gust
MPH
rain 1hr
in
rain 24hr
in
rain mn
in
humidity
%
barometer
mb
20260905224306 86 205 5.0 16.0 0.00 0.00 0.00 24 1013.5
20260905223806 86 196 7.0 16.0 0.00 0.00 0.00 24 1013.5
20260905222806 86 208 7.0 15.0 0.00 0.00 0.00 23 1020.6
20260905222306 86 210 7.0 15.0 0.00 0.00 0.00 25 1013.5
20260905221806 86 195 5.0 12.0 0.00 0.00 0.00 24 1013.5
20260905221306 86 174 2.0 14.0 0.00 0.00 0.00 25 1013.4
20260905220806 86 206 5.0 14.0 0.00 0.00 0.00 25 1013.3
20260905215805 85 208 5.0 16.0 0.00 0.00 0.00 26 1013.6
20260905214805 85 157 6.0 16.0 0.00 0.00 0.00 26 1013.5
20260905213805 85 213 2.0 13.0 0.00 0.00 0.00 24 1021.2
20260905213306 85 224 6.0 16.0 0.00 0.00 0.00 26 1013.7
20260905212805 85 159 7.0 21.0 0.00 0.00 0.00 27 1018.3
20260905211806 85 191 7.0 22.0 0.00 0.00 0.00 26 1017.3
20260905211305 85 156 7.0 22.0 0.00 0.00 0.00 27 1013.8
20260905210806 85 212 2.0 13.0 0.00 0.00 0.00 28 1021.9
20260905210305 77 156 7.0 14.0 0.00 0.00 0.00 28 1013.9
20260905204805 84 179 8.0 18.0 0.00 0.00 0.00 28 1013.8
20260905202805 84 184 6.0 15.0 0.00 0.00 0.00 26 1014.0
20260905202306 84 176 7.0 17.0 0.00 0.00 0.00 28 1014.1
20260905201805 84 176 7.0 16.0 0.00 0.00 0.00 24 1014.2
20260905201306 84 155 8.0 16.0 0.00 0.00 0.00 29 1014.2
20260905200805 77 191 6.0 14.0 0.00 0.00 0.00 30 1014.3
20260905200306 84 163 8.0 21.0 0.00 0.00 0.00 29 1014.3
20260905195306 81 161 6.0 18.0 0.00 0.00 0.00 29 1014.4
20260905194806 81 191 6.0 18.0 0.00 0.00 0.00 28 1018.8
20260905194305 81 163 7.0 14.0 0.00 0.00 0.00 30 1014.5
20260905193806 81 190 7.0 16.0 0.00 0.00 0.00 28 1014.3
20260905193305 81 161 9.0 17.0 0.00 0.00 0.00 28 1014.3
20260905192805 81 172 5.0 16.0 0.00 0.00 0.00 30 1014.4
20260905192306 81 163 11.0 16.0 0.00 0.00 0.00 28 1014.6
20260905190805 76 220 5.0 16.0 0.00 0.00 0.00 31 1014.7
20260905190305 81 158 8.0 17.0 0.00 0.00 0.00 31 1014.7
20260905185805 77 158 7.0 17.0 0.00 0.00 0.00 30 1015.0
20260905184805 77 144 13.0 16.0 0.00 0.00 0.00 30 1014.9
20260905184305 77 168 6.0 13.0 0.00 0.00 0.00 32 1019.8
20260905183805 77 184 6.0 13.0 0.00 0.00 0.00 31 1015.0
20260905183305 77 198 3.0 8.0 0.00 0.00 0.00 32 1019.3
20260905182806 77 175 5.0 7.0 0.00 0.00 0.00 32 1015.0
20260905182306 77 175 5.0 7.0 0.00 0.00 0.00 32 1021.2
20260905181305 77 187 5.0 8.0 0.00 0.00 0.00 33 1015.2
20260905180805 77 223 6.0 8.0 0.00 0.00 0.00 34 1015.3
20260905175805 75 181 7.0 8.0 0.00 0.00 0.00 34 1015.3
20260905175306 73 219 3.0 3.0 0.00 0.00 0.00 34 1015.4
20260905174806 72 219 6.0 10.0 0.00 0.00 0.00 34 1024.7
20260905173805 72 55 0.0 6.0 0.00 0.00 0.00 35 1015.6
20260905173305 73 224 1.0 9.0 0.00 0.00 0.00 35 1015.4
20260905172805 73 165 2.0 9.0 0.00 0.00 0.00 35 1015.8
20260905172305 72 150 2.0 5.0 0.00 0.00 0.00 36 1015.8
20260905171806 71 168 5.0 6.0 0.00 0.00 0.00 36 1020.4
20260905171306 72 149 5.0 6.0 0.00 0.00 0.00 37 1015.9
20260905170805 71 219 2.0 6.0 0.00 0.00 0.00 38 1016.0
20260905170305 71 192 1.0 6.0 0.00 0.00 0.00 37 1016.1
20260905165805 71 145 3.0 5.0 0.00 0.00 0.00 39 1016.1
20260905164805 67 198 2.0 5.0 0.00 0.00 0.00 43 1016.2
20260905164305 66 212 2.0 3.0 0.00 0.00 0.00 42 1016.1
20260905163805 66 55 1.0 2.0 0.00 0.00 0.00 42 1016.1
20260905163305 65 139 2.0 3.0 0.00 0.00 0.00 43 1024.5
20260905162805 64 173 1.0 5.0 0.00 0.00 0.00 44 1016.1
20260905162306 64 156 3.0 6.0 0.00 0.00 0.00 45 1020.8
20260905161805 64 139 5.0 6.0 0.00 0.00 0.00 44 1016.3
20260905161305 62 149 6.0 8.0 0.00 0.00 0.00 48 1016.3
20260905160805 61 144 7.0 9.0 0.00 0.00 0.00 51 1016.2
20260905160306 61 152 5.0 6.0 0.00 0.00 0.00 51 1016.1
20260905155805 61 136 6.0 9.0 0.00 0.00 0.00 52 1016.2
20260905155306 61 151 3.0 6.0 0.00 0.00 0.00 50 1016.1
20260905154805 61 146 6.0 9.0 0.00 0.00 0.00 49 1016.0
20260905154305 61 148 7.0 9.0 0.00 0.00 0.00 49 1016.1
20260905153805 61 162 5.0 5.0 0.00 0.00 0.00 51 1016.3
20260905152805 58 153 2.0 3.0 0.00 0.00 0.00 54 1016.0
20260905152306 58 153 2.0 3.0 0.00 0.00 0.00 53 1016.3
20260905151805 58 153 2.0 3.0 0.00 0.00 0.00 54 1016.2
20260905151305 57 72 3.0 3.0 0.00 0.00 0.00 54 1016.3
20260905150305 56 21 3.0 3.0 0.00 0.00 0.00 57 1016.6
20260905145805 54 45 2.0 3.0 0.00 0.00 0.00 60 1016.6
20260905145306 54 76 1.0 3.0 0.00 0.00 0.00 61 1016.7
20260905144805 53 76 3.0 7.0 0.00 0.00 0.00 62 1016.9
20260905144305 53 151 6.0 7.0 0.00 0.00 0.00 63 1020.5
20260905143805 53 151 5.0 7.0 0.00 0.00 0.00 63 1017.0
20260905143306 53 66 0.0 5.0 0.00 0.00 0.00 63 1020.3
20260905142805 52 60 2.0 5.0 0.00 0.00 0.00 63 1016.9
20260905142306 52 11 3.0 3.0 0.00 0.00 0.00 64 1016.9
20260905141805 52 33 2.0 5.0 0.00 0.00 0.00 64 1016.9
20260905141305 51 44 3.0 6.0 0.00 0.00 0.00 66 1016.9
20260905140805 51 67 5.0 7.0 0.00 0.00 0.00 66 1016.9
20260905140304 50 31 6.0 7.0 0.00 0.00 0.00 68 1016.8
20260905135805 48 31 3.0 3.0 0.00 0.00 0.00 72 1016.9
20260905135306 48 31 3.0 3.0 0.00 0.00 0.00 73 1017.0
20260905134806 48 31 3.0 3.0 0.00 0.00 0.00 73 1020.6
20260905134305 47 258 1.0 3.0 0.00 0.00 0.00 72 1016.9
20260905133805 47 163 2.0 5.0 0.00 0.00 0.00 73 1025.9
20260905133314 48 239 2.0 6.0 0.00 0.00 0.00 72 1016.9
20260905132805 47 56 4.0 9.0 0.00 0.00 0.00 71 1021.6
20260905132306 48 55 6.0 13.0 0.00 0.00 0.00 72 1016.7
20260905131805 47 60 7.0 13.0 0.00 0.00 0.00 72 1021.2
20260905131305 47 52 5.0 9.0 0.00 0.00 0.00 73 1016.6
20260905130806 46 56 6.0 9.0 0.00 0.00 0.00 73 1016.8
20260905130305 47 57 3.0 6.0 0.00 0.00 0.00 73 1016.6
20260905125805 48 70 5.0 7.0 0.00 0.00 0.00 71 1022.3
20260905125306 47 58 4.0 10.0 0.00 0.00 0.00 72 1016.6
20260905124305 47 54 6.0 10.0 0.00 0.00 0.00 70 1016.4
20260905123805 47 54 5.0 9.0 0.00 0.00 0.00 71 1016.3
20260905123304 46 49 3.0 6.0 0.00 0.00 0.00 74 1016.6
20260905122805 46 55 1.0 3.0 0.00 0.00 0.00 73 1016.4
20260905122306 47 199 2.0 5.0 0.00 0.00 0.00 72 1025.3
20260905121804 47 140 2.0 5.0 0.00 0.00 0.00 72 1016.3
20260905121306 47 90 3.0 6.0 0.00 0.00 0.00 71 1021.8
20260905120805 47 56 3.0 6.0 0.00 0.00 0.00 71 1016.2
20260905115805 47 64 5.0 9.0 0.00 0.00 0.00 71 1016.1
20260905115306 48 41 6.0 9.0 0.00 0.00 0.00 70 1016.3
20260905114805 48 74 4.0 10.0 0.00 0.00 0.00 67 1016.2
20260905114305 48 68 6.0 8.0 0.00 0.00 0.00 68 1016.4
20260905113805 47 57 3.0 9.0 0.00 0.00 0.00 69 1024.8
20260905113305 47 64 7.0 9.0 0.00 0.00 0.00 70 1016.2
20260905112805 48 29 6.0 8.0 0.00 0.00 0.00 69 1025.1
20260905112306 48 63 6.0 9.0 0.00 0.00 0.00 68 1016.4
20260905111804 48 60 5.0 8.0 0.00 0.00 0.00 67 1016.3
20260905111305 49 55 3.0 8.0 0.00 0.00 0.00 67 1016.3
20260905110804 48 78 6.0 7.0 0.00 0.00 0.00 66 1016.3
20260905110304 49 58 5.0 9.0 0.00 0.00 0.00 68 1016.3
20260905105805 49 57 5.0 9.0 0.00 0.00 0.00 66 1016.4
20260905105306 48 58 3.0 5.0 0.00 0.00 0.00 65 1024.3
20260905104305 49 50 4.0 6.0 0.00 0.00 0.00 68 1020.3
20260905103804 49 52 3.0 7.0 0.00 0.00 0.00 68 1016.1
20260905102805 49 51 6.0 10.0 0.00 0.00 0.00 67 1016.0
20260905102306 49 61 7.0 9.0 0.00 0.00 0.00 66 1016.1
20260905101805 49 67 7.0 8.0 0.00 0.00 0.00 67 1016.2
20260905101305 49 70 6.0 10.0 0.00 0.00 0.00 68 1016.1
20260905100805 49 61 6.0 12.0 0.00 0.00 0.00 68 1020.0
20260905100305 49 63 6.0 8.0 0.00 0.00 0.00 66 1016.1
20260905095805 49 54 7.0 13.0 0.00 0.00 0.00 66 1020.9
20260905095306 49 72 7.0 14.0 0.00 0.00 0.00 65 1016.1
20260905094305 49 72 7.0 12.0 0.00 0.00 0.00 64 1016.0
20260905093305 50 59 3.0 8.0 0.00 0.00 0.00 64 1015.9
20260905092306 50 66 5.0 7.0 0.00 0.00 0.00 66 1022.9
20260905091305 51 58 5.0 10.0 0.00 0.00 0.00 64 1023.8
20260905090804 51 74 5.0 12.0 0.00 0.00 0.00 64 1015.7
20260905090305 51 50 6.0 9.0 0.00 0.00 0.00 64 1024.3
20260905085805 50 69 6.0 12.0 0.00 0.00 0.00 63 1015.8
20260905084805 51 33 4.0 7.0 0.00 0.00 0.00 62 1015.7
20260905084305 51 37 6.0 10.0 0.00 0.00 0.00 63 1015.6
20260905083804 51 61 6.0 10.0 0.00 0.00 0.00 61 1015.7
20260905083304 52 51 6.0 10.0 0.00 0.00 0.00 63 1015.7
20260905082307 52 60 6.0 8.0 0.00 0.00 0.00 62 1015.4
20260905081805 52 54 3.0 7.0 0.00 0.00 0.00 62 1020.2
20260905081304 52 81 4.0 8.0 0.00 0.00 0.00 62 1015.3
20260905080305 52 68 6.0 9.0 0.00 0.00 0.00 60 1015.5
20260905075805 52 77 5.0 10.0 0.00 0.00 0.00 59 1015.3
20260905075306 52 72 5.0 10.0 0.00 0.00 0.00 60 1015.3
20260905074805 52 67 6.0 9.0 0.00 0.00 0.00 60 1015.4
20260905074304 52 56 5.0 9.0 0.00 0.00 0.00 58 1023.6
20260905073805 53 33 1.0 6.0 0.00 0.00 0.00 60 1015.3
20260905073305 54 70 2.0 7.0 0.00 0.00 0.00 59 1015.2
20260905072805 53 52 3.0 7.0 0.00 0.00 0.00 60 1015.3
20260905072306 53 79 4.0 9.0 0.00 0.00 0.00 59 1015.1
20260905071804 53 48 3.0 7.0 0.00 0.00 0.00 58 1020.5
20260905070805 55 72 7.0 10.0 0.00 0.00 0.00 57 1015.2
20260905070305 54 60 3.0 8.0 0.00 0.00 0.00 58 1015.3
20260905065804 55 67 7.0 8.0 0.00 0.00 0.00 58 1015.3
20260905065306 56 45 4.0 10.0 0.00 0.00 0.00 60 1015.2
20260905064805 55 68 9.0 10.0 0.00 0.00 0.00 57 1015.1
20260905064304 55 73 3.0 6.0 0.00 0.00 0.00 56 1014.8
20260905063805 55 101 4.0 7.0 0.00 0.00 0.00 56 1015.2
20260905063304 55 94 5.0 9.0 0.00 0.00 0.00 55 1015.1
20260905062804 55 57 5.0 9.0 0.00 0.00 0.00 56 1019.1
20260905062306 56 67 6.0 10.0 0.00 0.00 0.00 56 1014.8
20260905061804 55 60 6.0 12.0 0.00 0.00 0.00 56 1018.9
20260905061305 56 60 7.0 12.0 0.00 0.00 0.00 55 1015.0
20260905060805 56 67 6.0 9.0 0.00 0.00 0.00 54 1020.0
20260905060305 56 68 3.0 8.0 0.00 0.00 0.00 55 1014.7
20260905055804 56 36 1.0 9.0 0.00 0.00 0.00 54 1014.8
20260905055306 57 54 7.0 10.0 0.00 0.00 0.00 54 1014.8
20260905054807 56 68 6.0 8.0 0.00 0.00 0.00 54 1014.9
20260905054305 57 76 5.0 8.0 0.00 0.00 0.00 54 1018.6
20260905053804 58 71 2.0 6.0 0.00 0.00 0.00 54 1014.9
20260905053304 57 40 1.0 5.0 0.00 0.00 0.00 53 1019.6
20260905052805 57 58 3.0 5.0 0.00 0.00 0.00 55 1014.6
20260905052306 59 86 2.0 3.0 0.00 0.00 0.00 52 1014.7
20260905051804 58 75 1.0 8.0 0.00 0.00 0.00 52 1014.6
20260905051304 58 72 6.0 14.0 0.00 0.00 0.00 50 1014.6
20260905050305 59 71 9.0 15.0 0.00 0.00 0.00 50 1014.5
20260905045805 61 73 9.0 15.0 0.00 0.00 0.00 50 1014.7
20260905044806 61 62 8.0 13.0 0.00 0.00 0.00 48 1014.7
20260905044305 60 55 6.0 10.0 0.00 0.00 0.00 50 1014.6
20260905043804 61 64 6.0 9.0 0.00 0.00 0.00 50 1014.6
20260905043304 62 72 5.0 9.0 0.00 0.00 0.00 47 1016.7
20260905042804 62 76 6.0 9.0 0.00 0.00 0.00 50 1014.4
20260905042307 63 86 3.0 12.0 0.00 0.00 0.00 46 1014.5
20260905041804 62 61 6.0 12.0 0.00 0.00 0.00 47 1014.5
20260905041304 62 0 2.0 13.0 0.00 0.00 0.00 46 1014.5
20260905040804 61 43 7.0 13.0 0.00 0.00 0.00 47 1014.6
20260905035804 64 68 7.0 12.0 0.00 0.00 0.00 49 1016.4
20260905035306 63 84 3.0 8.0 0.00 0.00 0.00 47 1015.6
20260905034804 64 72 3.0 5.0 0.00 0.00 0.00 48 1016.4
20260905034304 63 143 1.0 5.0 0.00 0.00 0.00 48 1015.3
20260905033805 64 189 2.0 6.0 0.00 0.00 0.00 48 1016.0
20260905033304 63 88 5.0 10.0 0.00 0.00 0.00 45 1014.8
20260905032805 64 84 6.0 15.0 0.00 0.00 0.00 45 1015.6
20260905031804 63 62 9.0 14.0 0.00 0.00 0.00 45 1015.2
20260905031304 64 78 12.0 16.0 0.00 0.00 0.00 46 1016.0
20260905030804 63 79 11.0 14.0 0.00 0.00 0.00 46 1014.8
20260905030305 64 71 8.0 13.0 0.00 0.00 0.00 46 1015.5
20260905025804 62 73 5.0 10.0 0.00 0.00 0.00 37 1014.2
20260905025306 62 66 6.0 10.0 0.00 0.00 0.00 46 1015.1
20260905024304 77 52 4.0 5.0 0.00 0.00 0.00 46 1014.8
20260905023804 66 38 5.0 9.0 0.00 0.00 0.00 46 1015.3
20260905023305 64 39 2.0 5.0 0.00 0.00 0.00 47 1014.2
20260905022805 66 71 5.0 9.0 0.00 0.00 0.00 46 1015.1
20260905022306 64 63 6.0 9.0 0.00 0.00 0.00 46 1014.0
20260905021804 65 68 6.0 9.0 0.00 0.00 0.00 47 1015.0
20260905021304 64 66 2.0 3.0 0.00 0.00 0.00 37 1013.6
20260905020805 65 116 1.0 1.0 0.00 0.00 0.00 47 1014.7
20260905020304 64 44 1.0 1.0 0.00 0.00 0.00 38 1013.4
20260905015804 64 309 0.0 1.0 0.00 0.00 0.00 45 1014.2
20260905015306 81 318 1.0 1.0 0.00 0.00 0.00 30 1015.1
20260905014804 65 289 1.0 1.0 0.00 0.00 0.00 45 1014.0
20260905014304 65 229 1.0 1.0 0.00 0.00 0.00 44 1014.8
20260905013804 65 258 1.0 2.0 0.00 0.00 0.00 44 1013.7
20260905013304 65 255 2.0 2.0 0.00 0.00 0.00 43 1014.1
20260905012804 66 153 1.0 3.0 0.00 0.00 0.00 43 1013.2
20260905012306 81 83 2.0 3.0 0.00 0.00 0.00 40 1013.6
20260905011804 71 22 0.0 0.0 0.00 0.00 0.00 32 1014.6
20260905011304 69 22 0.0 1.0 0.00 0.00 0.00 40 1013.4
20260905010804 70 63 1.0 3.0 0.00 0.00 0.00 41 1014.2
20260905010305 68 78 3.0 5.0 0.00 0.00 0.00 39 1012.9
20260905005804 69 54 2.0 5.0 0.00 0.00 0.00 41 1016.0
20260905005306 69 46 3.0 5.0 0.00 0.00 0.00 40 1014.5
20260905004805 84 67 2.0 5.0 0.00 0.00 0.00 38 1014.8
20260905004304 83 24 3.0 6.0 0.00 0.00 0.00 21 1015.0
20260905003804 84 70 4.0 6.0 0.00 0.00 0.00 38 1013.4
20260905003304 84 16 0.0 2.0 0.00 0.00 0.00 34 1014.3
20260905002804 74 204 1.0 2.0 0.00 0.00 0.00 32 1013.0
20260905002306 84 279 1.0 2.0 0.00 0.00 0.00 31 1013.8
20260905001804 84 154 1.0 3.0 0.00 0.00 0.00 27 1014.6
20260905001304 84 325 1.0 5.0 0.00 0.00 0.00 31 1013.4
20260905000804 84 251 2.0 3.0 0.00 0.00 0.00 31 1014.4
20260905000304 84 223 2.0 3.0 0.00 0.00 0.00 29 1013.3
20260904235804 84 270 3.0 7.0 0.00 0.00 0.00 29 1014.0
20260904235306 76 80 5.0 7.0 0.00 0.00 0.00 29 1012.9
20260904234804 84 154 3.0 10.0 0.00 0.00 0.00 28 1013.8
20260904233804 84 207 2.0 9.0 0.00 0.00 0.00 26 1013.7
20260904233304 84 160 6.0 10.0 0.00 0.00 0.00 27 1014.4
20260904232804 84 215 4.0 10.0 0.00 0.00 0.00 27 1013.4
20260904232306 84 169 3.0 9.0 0.00 0.00 0.00 26 1014.2
20260904231804 77 343 6.0 12.0 0.00 0.00 0.00 28 1012.7
20260904231305 84 241 3.0 9.0 0.00 0.00 0.00 28 1013.5
20260904230304 84 214 3.0 6.0 0.00 0.00 0.00 25 1014.4
20260904225804 84 199 4.0 13.0 0.00 0.00 0.00 25 1012.8
20260904225306 84 188 7.0 10.0 0.00 0.00 0.00 27 1012.7